Regional Weather Roundup
Issued by NWS

Home | Current Version | Previous Version | Text Only | Print | Product List | Glossary Off
Versions: 1 2 3 4 5 6 7 8 9 10 11 12 13 14 15 16 17 18 19 20 21 22 23 24 25 26 27 28 29 30 31 32 33 34 35 36 37 38 39 40 41 42 43 44 45 46 47 48 49 50

000
ASUS45 KTFX 201310
RWRMT
MONTANA REGIONAL WEATHER ROUNDUP
NATIONAL WEATHER SERVICE GREAT FALLS MT
700 AM MDT WED SEP 20 2017

NOTE: "FAIR" INDICATES FEW OR NO CLOUDS BELOW 12000 FEET WITH NO
SIGNIFICANT WEATHER AND/OR OBSTRUCTIONS TO VISIBILITY.

MTZ001>007-043-201400-
WEST OF THE DIVIDE

CITY           SKY/WX    TMP DP  RH WIND       PRES   REMARKS
KALISPELL      CLOUDY    41  40  96 SE6       29.62F
MISSOULA       CLOUDY    38  37  97 CALM      29.66F
BUTTE          CLOUDY    35  28  75 VRB3      29.69F
MULLAN PASS    FOG       30  29  96 VRB5      29.61S VSB 1/4
ANACONDA         N/A     37  30  75 S10G16    29.68S WCI  30
DEER LODGE       N/A     41  30  65 S7        29.67F
EUREKA           N/A     43  36  75 CALM      29.59S
HAMILTON         N/A     39  36  87 S8        29.69R
LIBBY            N/A     39  39 100 CALM      29.61S
$$

MTZ008-052>055-201400-
SOUTHWEST MONTANA

CITY           SKY/WX    TMP DP  RH WIND       PRES   REMARKS
BOZEMAN        CLOUDY    37  31  78 SE9       29.72F WCI  30
DILLON         CLOUDY    35  23  61 CALM      29.71F
W YELLOWSTONE  CLOUDY    32  30  93 SW6G13    29.85S WCI  26
ENNIS          CLOUDY    39  27  60 S18G26    29.80S WCI  30
$$

MTZ009-010-012-014-046-048-049-054-201400-
EAST SLOPES AND CENTRAL MONTANA

CITY           SKY/WX    TMP DP  RH WIND       PRES   REMARKS
CUT BANK       MOCLDY    39  29  67 SW16      29.50S WCI  30
GREAT FALLS    CLOUDY    45  25  45 SW21G30   29.57F
MALMSTROM AFB  CLOUDY    43  28  54 SW15      29.59F
HELENA         CLOUDY    46  28  49 S10       29.64F
BOWMANS CRNR     N/A     40  27  60 S16       29.56F
CHOTEAU          N/A     43  30  61 SW12G25   29.55F
FAIRFIELD        N/A     40  28  60 SW13G20   29.55F
POWER            N/A     40  28  62 SW16      29.56S
RAYNESFORD       N/A     45  24  43 SW17G26   29.60F
ULM            MOCLDY    45  27  49 S14       29.59F
$$

MTZ011-013-016-021-045-047-050-051-201400-
NORTH CENTRAL MONTANA

CITY           SKY/WX    TMP DP  RH WIND       PRES   REMARKS
HAVRE          CLEAR     36  32  85 NW5       29.53F
LEWISTOWN      CLEAR     41  28  60 SW16      29.63F
N BAR RANCH      N/A     43  23  45 W17G26    29.62S
CHINOOK          N/A     43  30  61 NW5       29.53F
DENTON           N/A     42  27  54 SW14      29.57S
GEYSER           N/A     44  25  47 W25G31    29.56R
GRASS RANGE      N/A     46  24  42 SW17G26   29.55F
JUDITH GAP       N/A     40  26  59 SW14      29.66F
WINIFRED         N/A     42  27  55 SW15      29.58R
$$

MTZ017>020-022>027-061-062-201400-
NORTHEAST MONTANA

CITY           SKY/WX    TMP DP  RH WIND       PRES   REMARKS
GLASGOW        CLOUDY    41  34  76 SW6       29.57F
JORDAN           N/A     39  33  79 CALM      29.61F
SIDNEY         CLEAR     39  38  96 S6        29.62R
WOLF POINT     MOCLDY    37  35  92 SW6       29.59S
MALTA          CLEAR     34  32  93 CALM      29.57R
PLENTYWOOD       N/A     39  36  87 CALM      29.56R
POPLAR           N/A     39  37  93 S3        29.60R
$$

MTZ028>42-056>058-201400-
SOUTHCENTRAL AND SOUTHEAST MONTANA

CITY           SKY/WX    TMP DP  RH WIND       PRES   REMARKS
BAKER          CLEAR     43  34  70 SW13      29.71R
BILLINGS       PTCLDY    43  32  65 W14       29.69F
LIVINGSTON     CLOUDY    44  28  53 NW9       29.71F
MILES CITY     CLEAR     39  34  82 S9        29.68S
BIG TIMBER     CLEAR     43  28  56 W26       29.68F
HARLOWTON        N/A     41  27  58 MISG      29.66F
LAUREL           N/A     43  32  65 SW15      29.71F
$$

REGIONAL REPORTS...DAKOTAS

CITY           SKY/WX    TMP DP  RH WIND       PRES   REMARKS
WILLISTON      PTCLDY    43  40  89 SW8       29.59R
MINOT          CLEAR     48  40  73 SW10      29.59R
DICKINSON      CLEAR     42  38  85 SW13      29.67R
BEACH            N/A     43  37  81 SW13G18   29.70S
CROSBY           N/A     41  39  93 S14G21    29.54S
TIOGA            N/A     41  41 100 S12       29.59S
WATFORD CITY     N/A     43  39  87 SW9       29.61S
BISMARCK       CLEAR     44  40  85 SW5       29.71R
GRAND FORKS    PTCLDY    52  51  97 SW9       29.61R
FARGO          CLOUDY    52  49  89 W12       29.67
BUFFALO SD       N/A     41  37  86 W9        29.68S
RAPID CITY     CLEAR     36  30  80 NE5       29.80R
$$

REGIONAL REPORTS...WYOMING/IDAHO/WASHINGTON

CITY           SKY/WX    TMP DP  RH WIND       PRES   REMARKS
GILLETTE       CLEAR     43  28  55 SW21G29   29.78R
SHERIDAN       CLEAR     48  25  40 W8        29.75S
BUFFALO WY     CLEAR     41  24  51 S6        29.79R
CODY           CLEAR     40  26  57 W7        29.81R
IDAHO FALLS    MOCLDY    41  32  70 SW9       29.88F
SALMON         PTCLDY    37  36  96 CALM      29.71F
BOISE          CLOUDY    51  36  56 SE14      29.75S
SPOKANE        CLOUDY    44  42  93 S10       29.62S
$$

REGIONAL REPORTS...ALBERTA

CITY           SKY/WX    TMP DP  RH WIND       PRES   REMARKS
EDMONTON       CLOUDY    39  39 100 N2        29.33R
CALGARY        MOCLDY    41  21  45 W6        29.36S
LETHBRIDGE     PTCLDY    37  27  65 SW15      29.43F WCI  28
MEDICINE HAT   PTCLDY    39  30  70 S12       29.43F WCI  32
$$

REGIONAL REPORTS...SASKATCHEWAN

CITY           SKY/WX    TMP DP  RH WIND       PRES   REMARKS
SWIFT CURRENT  CLEAR     37  28  70 SW17G23   29.42F WCI  28
REGINA         PTCLDY    36  34  93 SE7       29.47S WCI  30
SASKATOON      PTCLDY    32  30  93 SW6       29.42S WCI  26
$$



USA.gov is the U.S. government's official web portal to all federal, state and local government web resources and services.